Погода в Самарском

Казахстан     49°01′16″N   83°21′49″E
темп.,
°C
ветер,
м/с
пор.,
м/с
влажн.,
%
обл.,
%
осадки,
мм/ч
давл.,
гПа
погр.,
м
17 сентября, пт
пт1700:00+15ссз32305 0.0 101111
03:00+13ссз22290 0.0 101112
06:00+12с22281 0.0 101212
09:00+18ююв212128 0.0 1012289
12:00+23ю45155 0.0 10101490
15:00+25ю36145 0.0 10082876
18:00+21юв331999 0.0 100739
21:00+16зсз2225100 0.0 100811
18 сентября, сб
сб1800:00+15сз1130100 0.0 100811
03:00+15з4931100 0.0 1009213
06:00+11ссв117599 0.4 101011
09:00+16юв225721 0.1 1010255
12:00+23ю473499 0.1 10081789
15:00+26ююз37204 0.0 10062562
18:00+21сз69420 0.0 1007279
21:00+12с44770 0.0 101059
19 сентября, вс
вс1900:00+11ссз43660 0.0 101138
03:00+10с335110 0.0 101117
06:00+11с2251100 0.0 101012
09:00+16ююв2243100 0.0 1010337
12:00+21ю463025 0.0 10081043
15:00+25ююз58175 0.0 10052302
18:00+21ю232481 0.0 100550
21:00+15с443081 0.0 100640
20 сентября, пн
пн2000:00+11ссз45415 0.0 100771
03:00+8ссз465016 0.0 1011108
06:00+5с23550 0.0 101631
09:00+9с23410 0.0 1018976
12:00+13з13261 0.0 10161983
15:00+15зсз44220 0.0 10142116
18:00+12сз68290 0.0 1016515
21:00+6сз45400 0.0 102070
21 сентября, вт
вт2100:00+5ссз33411 0.0 102134
03:00+4ссз444852 0.0 102262
06:00+1ссз45728 0.0 102573
09:00+5ссз45455 0.0 10261185
12:00+8ссз44324 0.0 10251582
15:00+9с54300 0.0 10241532
18:00+7с46360 0.0 1024292
21:00+2ссз44520 0.0 102659